Regional Weather Roundup
Issued by NWS

Home | Current Version | Previous Version | Text Only | Print | Product List | Glossary Off
Versions: 1 2 3 4 5 6 7 8 9 10 11 12 13 14 15 16 17 18 19 20 21 22 23 24 25 26 27 28 29 30 31 32 33 34 35 36 37 38 39 40 41 42 43 44 45 46 47 48 49 50

000
ASUS43 KOAX 281310
RWRNE

WEATHER ROUNDUP FOR NEBRASKA
NATIONAL WEATHER SERVICE OMAHA NE
700 AM CST SUN DEC 28 2014

NOTES: SATELLITE DATA IS BEING USED TO AUGMENT CLOUD COVER ABOVE
       12000 FEET.
       "FAIR" INDICATES FEW OR NO CLOUDS BELOW 12,000 FEET WITH NO
       SIGNIFICANT WEATHER AND/OR OBSTRUCTIONS TO VISIBILITY.

  * THESE STATIONS DO NOT REPORT WEATHER SUCH AS RAIN...SNOW OR FOG.

NEZ001>004-019>022-054>056-281400-
NEBRASKA PANHANDLE

CITY           SKY/WX    TMP DP  RH WIND       PRES   REMARKS
SCOTTSBLUFF    MOCLDY     6   2  83 E5        29.96F WCI  -3
ALLIANCE       MOCLDY     2  -2  83 CALM      29.95S
CHADRON        PTCLDY     4  -1  80 W8        29.96S WCI  -9
KIMBALL        CLOUDY    12   6  76 W10       29.92S WCI  -1
SIDNEY         CLOUDY     5  -2  72 W6        29.97S WCI  -6
$$

NEZ057>060-069>072-079>082-281400-
SOUTHWEST NEBRASKA

CITY           SKY/WX    TMP DP  RH WIND       PRES   REMARKS
NORTH PLATTE   PTCLDY    -2  -6  83 NW8       30.06R WCI -17
IMPERIAL       MOCLDY     2  -3  80 W7        30.03S WCI -11
LEXINGTON      CLEAR      4   1  86 NW6       30.06F WCI  -7
MCCOOK         MOCLDY     3  -1  83 W6        30.07F WCI  -8
OGALLALA       PTCLDY    -3  -6  85 W5        30.03S WCI -14
$$

NEZ005>010-023>029-035>040-094-281400-
NORTH CENTRAL NEBRASKA

CITY           SKY/WX    TMP DP  RH WIND       PRES   REMARKS
VALENTINE      CLEAR      0  -5  79 SW6       30.02S WCI -12
AINSWORTH      PTCLDY     6   1  79 W6        30.01F WCI  -5
BROKEN BOW     PTCLDY     2  -2  83 CALM      30.04S
O`NEILL        MOCLDY     7   4  86 W5        30.06R WCI  -1
ORD            PTCLDY     2  -1  88 NW3       30.06F
THEDFORD       PTCLDY     5   2  85 CALM      30.02S
$$

NEZ041-046>049-061>064-073>077-083>087-281400-
SOUTH CENTRAL NEBRASKA

CITY           SKY/WX    TMP DP  RH WIND       PRES   REMARKS
GRAND ISLAND   PTCLDY     8   3  80 W7        30.09S WCI  -3
AURORA         PTCLDY     9   6  85 SW6       30.09S WCI  -1
HASTINGS       PTCLDY     9   4  80 W6        30.08S WCI  -1
HEBRON         CLEAR     15  10  82 SW6       30.14S WCI   6
HOLDREGE       PTCLDY    13   7  76 CALM      30.08S
KEARNEY *      PTCLDY     9   3  78 SW8       30.08S WCI  -4
YORK           PTCLDY     9   5  85 W7        30.10S WCI  -3
$$

NEZ011>018-030>034-042>045-281400-
NORTHEAST NEBRASKA

CITY           SKY/WX    TMP DP  RH WIND       PRES   REMARKS
NORFOLK        PTCLDY     8   4  83 W5        30.08S WCI   0
ALBION         PTCLDY     6   2  83 N3        30.08S
BLAIR          CLEAR     16  12  87 S3        30.11S
COLUMBUS *     PTCLDY     3  -6  66 W3        30.11S
FREMONT        CLEAR     11   8  89 NW3       30.13S
TEKAMAH        CLEAR     12   8  84 S5        30.13S WCI   4
WAYNE          PTCLDY     6   3  87 CALM      30.09S
$$

NEZ050>053-065>068-078-088>093-281400-
SOUTHEAST NEBRASKA

CITY           SKY/WX    TMP DP  RH WIND       PRES   REMARKS
LINCOLN        PTCLDY    14  10  84 S3        30.15S
OMAHA EPPLEY   CLEAR     16  13  88 SE6       30.15S WCI   7
BEATRICE       CLEAR     13  10  88 S6        30.15S WCI   4
FALLS CITY     CLEAR     17  12  80 SW3       30.17F
NEBRASKA CITY  CLEAR     17  13  82 SW9       30.15S WCI   6
PLATTSMOUTH    CLEAR     16  12  85 SW7       30.14R WCI   6
$$

NEZ044-045-051>053-067-281400-
OMAHA AREA

CITY           SKY/WX    TMP DP  RH WIND       PRES   REMARKS
OMAHA EPPLEY   CLEAR     16  13  88 SE6       30.15S WCI   7
BLAIR          CLEAR     16  12  87 S3        30.11S
FREMONT        CLEAR     11   8  89 NW3       30.13S
MILLARD        CLEAR     16  13  89 CALM      30.14S
OFFUTT AFB     CLEAR     15  12  87 SE2       30.14S
PLATTSMOUTH    CLEAR     16  12  85 SW7       30.14R WCI   6
WAHOO          FAIR      10   5  80 NE3       30.12S
$$



USA.gov is the U.S. government's official web portal to all federal, state and local government web resources and services.